Location: Unspecified
(0.0000°N, 0.0000°E)
Time: 16:09:53
(UTC+02:00)

Cosmos 2237 Rocket - Visible Passes

Search period start: 21 October 2017 00:00
Search period end: 30 October 2017 23:00
Orbit: 834 x 851 km, 71.0° (Epoch: 21 October)

Date Brightness Start Highest point End Pass type
(mag) Time Alt. Az. Time Alt. Az. Time Alt. Az.
25 Oct 4.4 21:28:47 10° N 21:29:06 12° N 21:29:06 12° N visible
26 Oct 2.4 21:14:00 10° N 21:25:57 - SSE 21:18:29 46° NE visible
26 Oct5.323:07:16SW23:07:16SW23:00:48Wvisible
27 Oct 2.3 20:59:13 10° N 21:04:38 48° ENE 21:10:04 10° SSE visible
27 Oct 5.1 22:46:59 10° W 22:48:26 11° WSW 22:49:53 10° WSW visible
28 Oct 2.4 20:44:25 10° N 20:49:48 45° ENE 20:55:10 10° SSE visible
28 Oct 5.1 22:31:34 10° W 22:33:35 12° WSW 22:35:37 10° SW visible
29 Oct 2.5 19:29:39 10° N 19:34:58 42° ENE 19:40:16 10° SE visible
29 Oct 5.1 21:16:17 10° W 21:18:44 13° WSW 21:21:12 10° SW visible
30 Oct 2.6 19:14:53 10° N 19:20:07 39° ENE 19:25:21 10° SE visible
30 Oct 5.1 21:01:06 10° WNW 21:03:53 14° WSW 21:06:42 10° SW visible
